2016 GH134

Initial reported observation by Catalina Sky Survey on 2016-04-02.
(Discoverer will be defined when the object is numbered. See this note on how discoverers are determined.)

Orbit

Orbit type: Apollo
Near-Earth Object
One opposition object seen prior.

Note: WebGL enabled browser required.

epoch2023-02-25.0
epoch JD2460000.5
perihelion date2022-12-24.72144
perihelion JD2459938.22144
argument of perihelion (°)247.53394
ascending node (°)186.28021
inclination (°)26.34645
eccentricity0.5149567
perihelion distance (AU)0.5332030
Tisserand w.r.t. Jupiter5.4
ΔV w.r.t. Earth (km/sec)11.7
semimajor axis (AU)1.0992896
mean anomaly (°)53.25670
mean daily motion (°/day)0.85513700
aphelion distance (AU)1.665
period (years)1.15
P-vector [x]0.28925437
P-vector [y]0.95670996
P-vector [z]-0.03221740
Q-vector [x]-0.95602042
Q-vector [y]0.28701159
Q-vector [z]-0.06040940
absolute magnitude22.62
phase slope0.15
uncertainty8
referenceMPO 740708
observations used107
oppositions1
arc length (days)8
first opposition used2016
last opposition used2016
residual rms (arc-secs)0.56
perturbers coarse indicatorM-v
perturbers precise indicator003Ek
first observation date used2016-04-02.0
last observation date used2016-04-10.0
computer nameBell
JD of orbit computation2457501.049801
perihelion JD uncertainty (days)1.5809E-02
argument of perihelion uncertainty (°)8.4940E-03
ascending node uncertainty (°)9.6932E-04
inclination uncertainty (°)1.5046E-02
eccentricity uncertainty 2.2200E-04
perihelion distance uncertainty (AU)8.5440E-05
Minimum Orbit Intersection Distances (in AU)
for orbit epoch: 2460000.5, reference: E2023-FD4
Mercury0.26116
Venus0.06433
Earth0.00489
Mars0.38674
Jupiter3.84836
Saturn8.42998
Uranus17.2662
Neptune28.9865

Observations

110 total observations over interval: 2016 04 02.42094 – 2016 04 10.25011
These data are available for download (format description).

